Flag for Germany Weather past 2 weeks in Kehl, Baden-Württemberg, Germany

Now
59 °F

More clouds than sun.


Feels Like: 59 °F
Forecast: 44 / 68 °F
Wind: No wind

Location: Strasbourg Airport

Current Time: Sep 3, 2015 at 8:54:42 AM

Latest Report: Sep 3, 2015 at 8:30 AM


Visibility: N/A

Pressure: 29.98 "Hg

Humidity: 77%

Dew point: 52 °F

Location of KehlLocation

Historic Weather in Kehl — Graph

°F

Kehl temperature yesterday

Maximum temperature yesterday: 70 °F (at 12:30 PM)
Minimum temperature yesterday: 54 °F (at 5:30 AM)
Average temperature yesterday: 63 °F

Past Weeks' High & Low Weather Summary

 TemperatureHumidityPressure
High95 °F (Aug 30, 3:30 PM)100% (Sep 2, 7:00 AM)30.27 "Hg (Sep 2, 7:00 AM)
Low48 °F (Aug 20, 5:30 AM)26% (Aug 31, 3:00 PM)29.68 "Hg (Aug 24, 7:00 AM)
Average69 °F66%30.01 "Hg
* Reported Aug 19 7:00 AM — Sep 3 7:30 AM, Kehl, Weather by CustomWeather, © 2015

Note: Actual official high and low records may vary slightly from our data, if they occured in-between our weather recording intervals... More about our weather records

Advertising

Kehl weather history for previous 24 hours

 ConditionsComfort  
Time TempWeatherWind HumidityBarometerVisibility
7:30 AM
Thu, Sep 3
55 °FClear.No wind88%29.98 "Hg10 mi
7:00 AM55 °FClear.No wind88%29.98 "Hg10 mi
6:30 AM55 °FClear.2 mph88%29.98 "Hg10 mi
5:30 AM57 °FClear.3 mph82%29.95 "Hg10 mi
5:00 AM57 °FClear.2 mph82%29.98 "Hg10 mi
4:30 AM57 °FClear.5 mph82%29.98 "Hg10 mi
4:00 AM59 °FClear.2 mph77%29.98 "Hg10 mi
3:30 AM59 °FClear.2 mph77%29.98 "Hg10 mi
3:00 AM59 °FOvercast.2 mph82%29.98 "HgN/A
2:30 AM61 °FPassing clouds.No wind72%29.98 "HgN/A
2:00 AM59 °FClear.2 mph77%29.98 "Hg10 mi
1:30 AM59 °FClear.6 mph77%29.98 "Hg10 mi
1:00 AM61 °FClear.6 mph68%29.98 "Hg10 mi
12:30 AM61 °FClear.6 mph72%29.98 "Hg10 mi
11:30 PM
Wed, Sep 2
59 °FClear.2 mph77%29.98 "Hg10 mi
11:00 PM59 °FClear.5 mph77%29.98 "Hg10 mi
10:30 PM61 °FClear.No wind72%30.01 "Hg10 mi
10:00 PM61 °FClear.2 mph72%30.01 "Hg10 mi
9:30 PM63 °FClear.3 mph68%30.01 "Hg10 mi
9:00 PM64 °FSunny.3 mph68%30.01 "Hg10 mi
8:30 PM64 °FSunny.3 mph64%29.98 "Hg10 mi
8:00 PM66 °FMostly cloudy.3 mph60%29.98 "HgN/A
7:30 PM68 °FPassing clouds.3 mph53%29.98 "HgN/A
7:00 PM68 °FOvercast.5 mph53%29.98 "HgN/A
6:30 PM68 °FPassing clouds.6 mph53%29.98 "HgN/A
6:00 PM70 °FSunny.7 mph50%29.98 "Hg10 mi
5:30 PM70 °FPassing clouds.8 mph53%29.98 "HgN/A
5:00 PM70 °FPassing clouds.8 mph53%29.98 "HgN/A
4:30 PM70 °FPassing clouds.8 mph57%30.01 "HgN/A
4:00 PM70 °FSunny.8 mph57%30.01 "Hg10 mi
3:30 PM70 °FPassing clouds.8 mph53%30.01 "HgN/A
3:00 PM70 °FPassing clouds.8 mph57%30.01 "HgN/A
2:30 PM70 °FPassing clouds.3 mph53%30.01 "HgN/A
2:00 PM70 °FPassing clouds.6 mph53%30.01 "HgN/A
1:30 PM70 °FOvercast.5 mph53%30.01 "HgN/A
1:00 PM68 °FPartly sunny.5 mph60%30.04 "HgN/A
12:30 PM70 °FPassing clouds.3 mph60%30.04 "HgN/A
12:00 PM66 °FScattered clouds.5 mph64%30.04 "HgN/A
11:30 AM68 °FPassing clouds.2 mph60%30.04 "HgN/A
11:00 AM66 °FPartly sunny.5 mph68%30.04 "HgN/A
10:30 AM64 °FPassing clouds.3 mph68%30.04 "HgN/A
10:00 AM63 °FPassing clouds.3 mph83%30.04 "HgN/A
9:30 AM61 °FBroken clouds.3 mph83%30.07 "HgN/A
9:00 AM57 °FPartly sunny.2 mph94%30.07 "HgN/A
8:30 AM55 °FBroken clouds.2 mph94%30.07 "HgN/A
8:00 AM55 °FPartly sunny.1 mph94%30.07 "HgN/A
Weather by CustomWeather, © 2015

See weather overviewHow to use our weather pages